"Period start","avg(HW err(1)/warn(2) (#))","avg(Visibility (m))","avg(Weather code (#))","avg(Precip intensity (mm/h))","min(HW err(1)/warn(2) (#))","max(HW err(1)/warn(2) (#))","std(HW err(1)/warn(2) (#))","med(HW err(1)/warn(2) (#))","min(Visibility (m))","max(Visibility (m))","std(Visibility (m))","med(Visibility (m))","min(Weather code (#))","max(Weather code (#))","std(Weather code (#))","med(Weather code (#))","min(Precip intensity (mm/h))","max(Precip intensity (mm/h))","std(Precip intensity (mm/h))","med(Precip intensity (mm/h))"
2014-04-07 00:00:00,2,32927,0,0.00,2,2,0,2,26713,40736,4966,31852,0,0,0,0,0.00,0.00,0.00,0.00
2014-04-07 00:10:00,2,18448,14,0.00,2,2,0,2,9739,26252,5830,19022,0,71,28,0,0.00,0.00,0.00,0.00
2014-04-07 00:20:00,2,8182,73,0.11,2,2,0,2,4514,12006,2291,8234,71,77,3,71,0.00,0.40,0.11,0.08
2014-04-07 00:30:00,2,4905,71,0.58,2,2,0,2,3740,6215,716,4926,71,71,0,71,0.35,0.90,0.19,0.55
2014-04-07 00:40:00,2,7198,71,0.20,2,2,0,2,5051,9127,1178,7212,71,71,0,71,0.05,0.50,0.16,0.15
2014-04-07 00:50:00,2,10448,72,0.03,2,2,0,2,8769,12623,1113,10295,71,77,2,71,0.00,0.10,0.03,0.00
2014-04-07 01:00:00,2,15213,54,0.01,2,2,0,2,11251,20335,2609,15337,0,77,35,77,0.00,0.05,0.02,0.00
2014-04-07 01:10:00,2,26273,0,0.00,2,2,0,2,18016,37106,4888,26730,0,0,0,0,0.00,0.00,0.00,0.00
2014-04-07 01:20:00,2,27038,0,0.00,2,2,0,2,20349,37505,4973,26132,0,0,0,0,0.00,0.00,0.00,0.00
2014-04-07 01:30:00,2,35346,0,0.00,2,2,0,2,22398,47195,6979,34412,0,0,0,0,0.00,0.00,0.00,0.00
2014-04-07 01:40:00,2,29579,0,0.00,2,2,0,2,19190,39116,6211,31349,0,0,0,0,0.00,0.00,0.00,0.00
2014-04-07 01:50:00,2,30878,0,0.00,2,2,0,2,21847,42559,5349,31361,0,0,0,0,0.00,0.00,0.00,0.00
2014-04-07 02:00:00,2,35364,0,0.00,2,2,0,2,23724,50000,8452,34870,0,0,0,0,0.00,0.00,0.00,0.00
2014-04-07 02:10:00,2,27979,0,0.00,2,2,0,2,19288,37816,7721,24993,0,0,0,0,0.00,0.00,0.00,0.00
2014-04-07 02:20:00,2,35582,0,0.00,2,2,0,2,15670,50000,11883,36569,0,0,0,0,0.00,0.00,0.00,0.00
2014-04-07 02:30:00,2,32288,0,0.00,2,2,0,2,21314,50000,10147,27894,0,0,0,0,0.00,0.00,0.00,0.00
2014-04-07 02:40:00,2,37424,0,0.00,2,2,0,2,18167,50000,8727,37096,0,0,0,0,0.00,0.00,0.00,0.00
2014-04-07 02:50:00,2,32552,0,0.00,2,2,0,2,18447,49499,9642,30727,0,0,0,0,0.00,0.00,0.00,0.00
2014-04-07 03:00:00,2,34321,0,0.00,2,2,0,2,19581,43281,7622,36254,0,0,0,0,0.00,0.00,0.00,0.00
2014-04-07 03:10:00,2,33660,0,0.00,2,2,0,2,22922,50000,7935,33330,0,0,0,0,0.00,0.00,0.00,0.00
2014-04-07 03:20:00,2,39178,0,0.00,2,2,0,2,22388,50000,8999,38638,0,0,0,0,0.00,0.00,0.00,0.00
2014-04-07 03:30:00,2,35321,0,0.00,2,2,0,2,26852,43624,4901,34405,0,0,0,0,0.00,0.00,0.00,0.00
2014-04-07 03:40:00,2,36418,0,0.00,2,2,0,2,24847,50000,8112,34232,0,0,0,0,0.00,0.00,0.00,0.00
2014-04-07 03:50:00,2,34952,0,0.00,2,2,0,2,21053,47024,8061,36423,0,0,0,0,0.00,0.00,0.00,0.00
2014-04-07 04:00:00,2,34617,0,0.00,2,2,0,2,20199,47650,8990,37329,0,0,0,0,0.00,0.00,0.00,0.00
2014-04-07 04:10:00,2,35632,0,0.00,2,2,0,2,12410,50000,12386,37090,0,0,0,0,0.00,0.00,0.00,0.00
2014-04-07 04:20:00,2,29837,0,0.00,2,2,0,2,16221,39717,7764,27703,0,0,0,0,0.00,0.00,0.00,0.00
2014-04-07 04:30:00,2,35177,0,0.00,2,2,0,2,19247,50000,9316,33876,0,0,0,0,0.00,0.00,0.00,0.00
2014-04-07 04:40:00,2,23245,0,0.00,2,2,0,2,16351,30893,4848,23864,0,0,0,0,0.00,0.00,0.00,0.00
2014-04-07 04:50:00,2,26318,0,0.00,2,2,0,2,13689,34405,7071,28209,0,0,0,0,0.00,0.00,0.00,0.00
2014-04-07 05:00:00,2,27346,0,0.00,2,2,0,2,15797,46463,7605,26890,0,0,0,0,0.00,0.00,0.00,0.00
2014-04-07 05:10:00,2,38906,0,0.00,2,2,0,2,24562,50000,9476,37708,0,0,0,0,0.00,0.00,0.00,0.00
2014-04-07 05:20:00,2,30171,0,0.00,2,2,0,2,18085,49402,8768,29192,0,0,0,0,0.00,0.00,0.00,0.00
2014-04-07 05:30:00,2,27203,0,0.00,2,2,0,2,16869,35656,5994,26830,0,0,0,0,0.00,0.00,0.00,0.00
2014-04-07 05:40:00,2,25116,0,0.00,2,2,0,2,15447,33761,6085,25744,0,0,0,0,0.00,0.00,0.00,0.00
2014-04-07 05:50:00,2,29587,0,0.00,2,2,0,2,10973,50000,12360,25866,0,0,0,0,0.00,0.00,0.00,0.00
2014-04-07 06:00:00,2,31231,0,0.00,2,2,0,2,19039,43632,8439,30606,0,0,0,0,0.00,0.00,0.00,0.00
2014-04-07 06:10:00,2,29246,0,0.00,2,2,0,2,19448,50000,9533,26420,0,0,0,0,0.00,0.00,0.00,0.00
2014-04-07 06:20:00,2,23638,0,0.00,2,2,0,2,14140,40430,8728,20789,0,0,0,0,0.00,0.00,0.00,0.00
2014-04-07 06:30:00,2,29755,0,0.00,2,2,0,2,20446,48242,8982,25746,0,0,0,0,0.00,0.00,0.00,0.00
2014-04-07 06:40:00,2,36744,0,0.00,2,2,0,2,24357,50000,8176,36201,0,0,0,0,0.00,0.00,0.00,0.00
2014-04-07 06:50:00,2,38012,0,0.00,2,2,0,2,28590,48322,6153,38965,0,0,0,0,0.00,0.00,0.00,0.00
2014-04-07 07:00:00,2,24228,0,0.00,2,2,0,2,8763,50000,12172,19581,0,0,0,0,0.00,0.00,0.00,0.00
2014-04-07 07:10:00,2,27046,0,0.00,2,2,0,2,14788,41437,7751,28052,0,0,0,0,0.00,0.00,0.00,0.00
2014-04-07 07:20:00,2,38361,0,0.00,2,2,0,2,19636,50000,10286,38466,0,0,0,0,0.00,0.00,0.00,0.00
2014-04-07 07:30:00,2,38274,0,0.00,2,2,0,2,30641,48119,5501,37060,0,0,0,0,0.00,0.00,0.00,0.00
2014-04-07 07:40:00,2,36163,0,0.00,2,2,0,2,23291,44732,7066,38747,0,0,0,0,0.00,0.00,0.00,0.00
2014-04-07 07:50:00,2,42484,0,0.00,2,2,0,2,36519,50000,4599,42036,0,0,0,0,0.00,0.00,0.00,0.00
2014-04-07 08:00:00,2,42757,0,0.00,2,2,0,2,37040,49105,4175,40916,0,0,0,0,0.00,0.00,0.00,0.00
2014-04-07 08:10:00,2,33656,0,0.00,2,2,0,2,24632,50000,7437,32378,0,0,0,0,0.00,0.00,0.00,0.00
2014-04-07 08:20:00,2,40234,0,0.00,2,2,0,2,31603,50000,6267,39365,0,0,0,0,0.00,0.00,0.00,0.00
2014-04-07 08:30:00,2,39583,0,0.00,2,2,0,2,29263,50000,7387,39762,0,0,0,0,0.00,0.00,0.00,0.00
2014-04-07 08:40:00,2,37336,0,0.00,2,2,0,2,27112,45878,5888,37573,0,0,0,0,0.00,0.00,0.00,0.00
2014-04-07 08:50:00,2,42675,0,0.00,2,2,0,2,36124,48896,4254,42945,0,0,0,0,0.00,0.00,0.00,0.00
2014-04-07 09:00:00,2,43131,0,0.00,2,2,0,2,32779,50000,6873,45640,0,0,0,0,0.00,0.00,0.00,0.00
2014-04-07 09:10:00,2,34765,0,0.00,2,2,0,2,27758,45360,5761,32713,0,0,0,0,0.00,0.00,0.00,0.00
2014-04-07 09:20:00,2,43739,0,0.00,2,2,0,2,36224,50000,4586,45301,0,0,0,0,0.00,0.00,0.00,0.00
2014-04-07 09:30:00,2,30677,0,0.00,2,2,0,2,27582,41783,3969,29472,0,0,0,0,0.00,0.00,0.00,0.00
2014-04-07 09:40:00,2,36986,0,0.00,2,2,0,2,25561,42903,5185,37297,0,0,0,0,0.00,0.00,0.00,0.00
2014-04-07 09:50:00,2,31344,21,0.00,2,2,0,2,17947,42131,6788,32226,0,71,33,0,0.00,0.00,0.00,0.00
2014-04-07 10:00:00,2,35070,0,0.00,2,2,0,2,24364,44526,5728,35714,0,0,0,0,0.00,0.00,0.00,0.00
2014-04-07 10:10:00,2,38063,0,0.00,2,2,0,2,28885,42152,4626,39982,0,0,0,0,0.00,0.00,0.00,0.00
2014-04-07 10:20:00,2,32952,0,0.00,2,2,0,2,28524,37793,2859,33173,0,0,0,0,0.00,0.00,0.00,0.00
2014-04-07 10:30:00,2,31029,0,0.00,2,2,0,2,23005,39274,4688,30234,0,0,0,0,0.00,0.00,0.00,0.00
2014-04-07 10:40:00,2,20804,0,0.00,2,2,0,2,15122,31393,5021,20188,0,0,0,0,0.00,0.00,0.00,0.00
2014-04-07 10:50:00,2,16014,0,0.00,2,2,0,2,9604,25089,4877,14660,0,0,0,0,0.00,0.00,0.00,0.00
2014-04-07 11:00:00,2,21054,0,0.00,2,2,0,2,12585,24000,3957,23073,0,0,0,0,0.00,0.00,0.00,0.00
2014-04-07 11:10:00,2,27688,0,0.00,2,2,0,2,23561,30369,2063,27820,0,0,0,0,0.00,0.00,0.00,0.00
2014-04-07 11:20:00,2,30937,0,0.00,2,2,0,2,27137,34179,1981,31034,0,0,0,0,0.00,0.00,0.00,0.00
2014-04-07 11:30:00,2,32698,0,0.00,2,2,0,2,26968,34627,2227,33633,0,0,0,0,0.00,0.00,0.00,0.00
2014-04-07 11:40:00,2,32062,0,0.00,2,2,0,2,24935,40798,4674,31160,0,0,0,0,0.00,0.00,0.00,0.00
2014-04-07 11:50:00,2,31013,0,0.00,2,2,0,2,27617,32894,1593,31121,0,0,0,0,0.00,0.00,0.00,0.00
2014-04-07 12:00:00,2,32056,0,0.00,2,2,0,2,28917,37138,2721,31180,0,0,0,0,0.00,0.00,0.00,0.00
2014-04-07 12:10:00,2,37468,0,0.00,2,2,0,2,28969,42005,4175,38113,0,0,0,0,0.00,0.00,0.00,0.00
2014-04-07 12:20:00,2,39256,0,0.00,2,2,0,2,12075,47914,10877,43362,0,0,0,0,0.00,0.00,0.00,0.00
2014-04-07 12:30:00,2,40551,0,0.00,2,2,0,2,34212,44582,3246,41712,0,0,0,0,0.00,0.00,0.00,0.00
2014-04-07 12:40:00,2,46642,0,0.00,2,2,0,2,41603,50000,3279,47054,0,0,0,0,0.00,0.00,0.00,0.00
2014-04-07 12:50:00,2,42820,0,0.00,2,2,0,2,39577,47363,2170,42826,0,0,0,0,0.00,0.00,0.00,0.00
2014-04-07 13:00:00,2,43434,0,0.00,2,2,0,2,38381,49397,3291,42232,0,0,0,0,0.00,0.00,0.00,0.00
2014-04-07 13:10:00,2,42857,0,0.00,2,2,0,2,38910,48411,3083,42032,0,0,0,0,0.00,0.00,0.00,0.00
2014-04-07 13:20:00,2,45883,0,0.00,2,2,0,2,38845,50000,4426,48606,0,0,0,0,0.00,0.00,0.00,0.00
2014-04-07 13:30:00,2,44680,0,0.00,2,2,0,2,41449,50000,3025,43952,0,0,0,0,0.00,0.00,0.00,0.00
2014-04-07 13:40:00,2,42930,0,0.00,2,2,0,2,38926,47012,2002,43142,0,0,0,0,0.00,0.00,0.00,0.00
2014-04-07 13:50:00,2,42228,0,0.00,2,2,0,2,38651,46454,2753,42074,0,0,0,0,0.00,0.00,0.00,0.00
2014-04-07 14:00:00,2,40842,0,0.00,2,2,0,2,37197,45705,2314,41100,0,0,0,0,0.00,0.00,0.00,0.00
2014-04-07 14:10:00,2,43892,0,0.00,2,2,0,2,38655,49765,3655,42974,0,0,0,0,0.00,0.00,0.00,0.00
2014-04-07 14:20:00,2,48335,0,0.00,2,2,0,2,43858,50000,1953,48932,0,0,0,0,0.00,0.00,0.00,0.00
2014-04-07 14:30:00,2,42369,0,0.00,2,2,0,2,37112,50000,3404,41916,0,0,0,0,0.00,0.00,0.00,0.00
2014-04-07 14:40:00,2,41479,0,0.00,2,2,0,2,36482,47110,3154,41012,0,0,0,0,0.00,0.00,0.00,0.00
2014-04-07 14:50:00,2,37946,0,0.00,2,2,0,2,33285,47536,3954,38586,0,0,0,0,0.00,0.00,0.00,0.00
2014-04-07 15:00:00,2,40588,0,0.00,2,2,0,2,33035,45128,4068,40884,0,0,0,0,0.00,0.00,0.00,0.00
2014-04-07 15:10:00,2,41196,0,0.00,2,2,0,2,37923,46860,2514,41004,0,0,0,0,0.00,0.00,0.00,0.00
2014-04-07 15:20:00,2,40402,0,0.00,2,2,0,2,37005,44951,2458,40094,0,0,0,0,0.00,0.00,0.00,0.00
2014-04-07 15:30:00,2,43801,0,0.00,2,2,0,2,40501,48835,2319,42800,0,0,0,0,0.00,0.00,0.00,0.00
2014-04-07 15:40:00,2,40156,0,0.00,2,2,0,2,31300,46869,5107,41532,0,0,0,0,0.00,0.00,0.00,0.00
2014-04-07 15:50:00,2,43810,0,0.00,2,2,0,2,38904,50000,3191,43096,0,0,0,0,0.00,0.00,0.00,0.00
2014-04-07 16:00:00,2,45648,0,0.00,2,2,0,2,40516,48867,2853,46620,0,0,0,0,0.00,0.00,0.00,0.00
2014-04-07 16:10:00,2,44168,0,0.00,2,2,0,2,41236,49406,2367,43726,0,0,0,0,0.00,0.00,0.00,0.00
2014-04-07 16:20:00,2,41059,0,0.00,2,2,0,2,36493,47683,3616,40266,0,0,0,0,0.00,0.00,0.00,0.00
2014-04-07 16:30:00,2,39537,0,0.00,2,2,0,2,36382,42448,1958,39092,0,0,0,0,0.00,0.00,0.00,0.00
2014-04-07 16:40:00,2,38915,0,0.00,2,2,0,2,33072,44441,3754,38218,0,0,0,0,0.00,0.00,0.00,0.00
2014-04-07 16:50:00,2,37252,0,0.00,2,2,0,2,34289,41198,2093,37218,0,0,0,0,0.00,0.00,0.00,0.00
2014-04-07 17:00:00,2,41824,0,0.00,2,2,0,2,37144,45353,2662,42719,0,0,0,0,0.00,0.00,0.00,0.00
2014-04-07 17:10:00,2,39457,0,0.00,2,2,0,2,36236,42720,1994,39716,0,0,0,0,0.00,0.00,0.00,0.00
2014-04-07 17:20:00,2,41136,0,0.00,2,2,0,2,37354,44597,2202,41777,0,0,0,0,0.00,0.00,0.00,0.00
2014-04-07 17:30:00,2,42718,0,0.00,2,2,0,2,32570,47252,4311,43389,0,0,0,0,0.00,0.00,0.00,0.00
2014-04-07 17:40:00,2,42606,0,0.00,2,2,0,2,32165,50000,5335,43588,0,0,0,0,0.00,0.00,0.00,0.00
2014-04-07 17:50:00,2,44933,0,0.00,2,2,0,2,40867,47883,2054,45672,0,0,0,0,0.00,0.00,0.00,0.00
2014-04-07 18:00:00,2,42691,0,0.00,2,2,0,2,37369,45776,2372,43234,0,0,0,0,0.00,0.00,0.00,0.00
2014-04-07 18:10:00,2,41885,0,0.00,2,2,0,2,34672,46345,3668,42062,0,0,0,0,0.00,0.00,0.00,0.00
2014-04-07 18:20:00,2,47331,0,0.00,2,2,0,2,43762,50000,2208,47638,0,0,0,0,0.00,0.00,0.00,0.00
2014-04-07 18:30:00,2,40868,0,0.00,2,2,0,2,37521,49444,3406,39843,0,0,0,0,0.00,0.00,0.00,0.00
2014-04-07 18:40:00,2,23910,0,0.00,2,2,0,2,18155,28783,3931,24419,0,0,0,0,0.00,0.00,0.00,0.00
2014-04-07 18:50:00,2,19614,0,0.00,2,2,0,2,17059,22856,1802,19539,0,0,0,0,0.00,0.00,0.00,0.00
2014-04-07 19:00:00,2,26010,0,0.00,2,2,0,2,19907,34149,4650,26090,0,0,0,0,0.00,0.00,0.00,0.00
2014-04-07 19:10:00,2,20961,0,0.00,2,2,0,2,14711,29818,4913,20292,0,0,0,0,0.00,0.00,0.00,0.00
2014-04-07 19:20:00,2,15985,0,0.00,2,2,0,2,13773,19844,1631,15500,0,0,0,0,0.00,0.00,0.00,0.00
2014-04-07 19:30:00,2,20569,0,0.00,2,2,0,2,14545,28000,4915,20762,0,0,0,0,0.00,0.00,0.00,0.00
2014-04-07 19:40:00,2,23970,0,0.00,2,2,0,2,18069,31029,3813,23039,0,0,0,0,0.00,0.00,0.00,0.00
2014-04-07 19:50:00,2,23969,0,0.00,2,2,0,2,16610,29484,4689,25828,0,0,0,0,0.00,0.00,0.00,0.00
2014-04-07 20:00:00,2,26440,0,0.00,2,2,0,2,19769,35571,4166,25694,0,0,0,0,0.00,0.00,0.00,0.00
2014-04-07 20:10:00,2,25806,0,0.00,2,2,0,2,21014,31007,2648,25668,0,0,0,0,0.00,0.00,0.00,0.00
2014-04-07 20:20:00,2,20365,0,0.00,2,2,0,2,17646,24342,2377,19741,0,0,0,0,0.00,0.00,0.00,0.00
2014-04-07 20:30:00,2,22566,0,0.00,2,2,0,2,16660,29097,3581,21229,0,0,0,0,0.00,0.00,0.00,0.00
2014-04-07 20:40:00,2,27097,0,0.00,2,2,0,2,19805,40862,5625,26532,0,0,0,0,0.00,0.00,0.00,0.00
2014-04-07 20:50:00,2,29331,0,0.00,2,2,0,2,21333,39552,5877,29852,0,0,0,0,0.00,0.00,0.00,0.00
2014-04-07 21:00:00,2,27899,0,0.00,2,2,0,2,17238,35264,6302,30350,0,0,0,0,0.00,0.00,0.00,0.00
2014-04-07 21:10:00,2,20486,0,0.00,2,2,0,2,12239,30296,6104,19627,0,0,0,0,0.00,0.00,0.00,0.00
2014-04-07 21:20:00,2,16218,0,0.00,2,2,0,2,14015,18994,1966,15640,0,0,0,0,0.00,0.00,0.00,0.00
2014-04-07 21:30:00,2,15233,0,0.00,2,2,0,2,9322,20864,3581,14703,0,0,0,0,0.00,0.00,0.00,0.00
2014-04-07 21:40:00,2,7487,23,0.01,2,2,0,2,4720,11262,2558,7328,0,78,33,0,0.00,0.05,0.02,0.00
2014-04-07 21:50:00,2,6466,78,0.00,2,2,0,2,5859,7473,495,6386,78,78,0,78,0.00,0.00,0.00,0.00
2014-04-07 22:00:00,2,5508,78,0.01,2,2,0,2,4814,7326,720,5307,77,78,0,78,0.00,0.05,0.02,0.00
2014-04-07 22:10:00,2,8098,17,0.00,2,2,0,2,6434,9744,1096,8298,10,78,20,10,0.00,0.00,0.00,0.00
2014-04-07 22:20:00,2,8010,10,0.00,2,2,0,2,5849,9462,1092,8195,10,10,0,10,0.00,0.00,0.00,0.00
2014-04-07 22:30:00,2,12835,8,0.00,2,2,0,2,9914,16150,2217,12572,0,10,4,10,0.00,0.00,0.00,0.00
2014-04-07 22:40:00,2,10841,0,0.00,2,2,0,2,9252,12503,1023,11058,0,0,0,0,0.00,0.00,0.00,0.00
2014-04-07 22:50:00,2,14373,0,0.00,2,2,0,2,10535,21703,3053,13558,0,0,0,0,0.00,0.00,0.00,0.00
2014-04-07 23:00:00,2,22380,0,0.00,2,2,0,2,14974,32008,5528,20690,0,0,0,0,0.00,0.00,0.00,0.00
2014-04-07 23:10:00,2,13052,0,0.00,2,2,0,2,12060,14198,811,13078,0,0,0,0,0.00,0.00,0.00,0.00
2014-04-07 23:20:00,2,10353,0,0.00,2,2,0,2,8617,13123,1395,9784,0,0,0,0,0.00,0.00,0.00,0.00
2014-04-07 23:30:00,2,10000,0,0.00,2,2,0,2,8774,11086,646,10124,0,0,0,0,0.00,0.00,0.00,0.00
2014-04-07 23:40:00,2,7875,4,0.00,2,2,0,2,5758,10135,1490,7696,0,10,5,0,0.00,0.00,0.00,0.00
2014-04-07 23:50:00,2,5596,10,0.00,2,2,0,2,3917,7100,946,5704,10,10,0,10,0.00,0.00,0.00,0.00
